Showing default

LES 5, 2866

Orbit data source: Space-Track

LES 5, 2866 is a payload satellite owned by SAMSO (US) in GEO that was launched on Sat, 01 Jul 1967 UTC via a TITAN IIIC launch vehicle from the Air Force Eastern Test Range (AFETR). Payload-class satellites include a variety of spacecraft equipped with specific instruments for various scientific and technological missions. These include communications satellites like Starlink; space stations such as the ISS; scientific satellites like the Hubble; Earth observation satellites from companies like Planet Labs, Umbra, and HawkEye 360; GPS; miniature CubeSats for education and research; and military/defense satellites.

Loading next visibility...
Identifier
2866, 1967-066E
Orbit
GEO
Country
Flag of USUS
Related business
Manufacturer
MIT-LL
Mission
Partially operational spacecraft
Bus & Motor
LES, Unknown motor
Mass
102 kg wet, 102 kg dry
Launch date (UTC)
1967-07-01 (58 years ago)
Launch vehicle
TITAN IIIC
Launch site
Air Force Eastern Test Range (AFETR)
Object type
Payload
Rocket body
Debris
Shape & HBR
Unknown
Radar Cross Section
Large (>1 m²)

Expand to show TLE details & history
Last TLE update: 10 hours ago

TLE from 10 hours ago
0 LES 5
1 02866U 67066E   25355.50098115 -.00000086  00000-0  00000-0 0  9991
2 02866   2.2145 102.1629 0056652 201.1387 237.1093  1.09425976129094
Epoch: 2025-12-21T12:01Z
TLE epoch observation values (Epoch: 2025-12-21T12:01:24.771Z)
Latitude
2.16828°
Longitude
-90.81331°
Altitude
33,522.87 km
Speed
3.156 km/s
True Right ascension
11h 59m 24s
True Declination
2° 09' 57"
Sunlit
Object was in daylight at epoch
Visualization orbit readout
Latitude
Unknown
Longitude
Unknown
Altitude
Unknown
Speed
Unknown
Apparent Right ascension
Unknown
Apparent Declination
Unknown
Sunlit
N/A
Visualization observer readout
Local Sidereal Time
20:45:00
Azimuth
Unknown
Elevation
Unknown
Doppler factor
Unknown
Orbital elements
Apogee altitude
33,627.449 km
Perigee altitude
33,176.723 km
Semi-major axis
39,780.223 km
Eccentricity
0.00567
Inclination
2.2145°
RAAN
102.1629°
Arg. of periapsis
201.1387°
True anomaly
236.56627°
Mean anomaly
237.1093°
Eccentric anomaly
236.83758°
Mean motion
0.27355 °/min
Orbital period
1,316.01 mins
BSTAR
0
Loading maneuver chart data...
Computing Atmospheric mass density...
Loading historical data...
Loading historical data...
Loading historical data...
Loading historical data...
Loading historical data...
Loading historical data...
Loading historical data...

Documentation

Showing up to 5 results
|